QPF
0.00 0.00 0.00 0.00 0.00 0.00 0.00 0.00 0.00 0.00 0.00 0.00 0.00 0.00 0.00 0.00 0.00 0.00 0.00 0.00 0.00 0.00 0.00 0.00 0.00 0.00 0.00 0.00 0.00 0.00 0.00 0.00 0.00 0.00 0.00 0.00 0.00 0.00 0.00 0.00 0.01 0.01 0.00 0.00
0.00 0.00 0.00 0.00 0.00 0.00 0.00 0.00 0.00 0.00 0.00 0.00 0.00 0.00 0.00 0.00 0.00 0.00 0.00 0.00 0.00 0.00 0.00 0.00 0.00 0.00 0.00 0.00 0.00 0.00 0.00 0.00 0.00 0.00 0.00 0.00 0.00 0.00 0.00 0.00 0.01 0.01 0.02 0.01
0.00 0.00 0.00 0.00 0.00 0.00 0.00 0.00 0.00 0.00 0.00 0.00 0.00 0.00 0.00 0.00 0.00 0.00 0.00 0.00 0.00 0.00 0.00 0.00 0.00 0.00 0.00 0.00 0.00 0.00 0.00 0.00 0.00 0.00 0.00 0.00 0.00 0.00 0.00 0.00 0.00 0.00 0.00 0.00
0.00 0.00 0.00 0.00 0.00 0.00 0.00 0.00 0.00 0.00 0.00 0.00 0.00 0.00 0.00 0.00 0.00 0.00 0.00 0.00 0.00 0.00 0.00 0.00 0.00 0.00 0.00 0.00 0.00 0.00 0.00 0.00 0.00 0.00 0.00 0.00 0.00 0.00 0.00 0.00 0.00 0.00 0.00 0.00
0.00 0.00 0.00 0.00 0.00 0.00 0.00 0.00 0.00 0.00 0.00 0.00 0.00 0.00 0.00 0.00 0.00 0.00 0.00 0.00 0.00 0.00 0.00 0.00 0.00 0.00 0.00 0.00 0.00 0.00 0.00 0.00 0.00 0.00 0.00 0.00 0.00 0.00 0.00 0.00 0.00 0.00 0.00 0.00
0.00 0.00 0.00 0.00 0.00 0.00 0.00 0.00 0.00 0.00 0.00 0.00 0.00 0.00 0.00 0.00 0.00 0.00 0.00 0.00 0.00 0.00 0.00 0.00 0.00 0.00 0.00 0.00 0.00 0.00 0.00 0.00 0.00 0.00 0.00 0.00 0.00 0.00 0.00 0.00 0.00 0.00 0.00 0.00
0.00 0.00 0.00 0.00 0.00 0.00 0.00 0.00 0.00 0.00 0.00 0.00 0.00 0.00 0.00 0.00 0.00 0.00 0.00 0.00 0.00 0.00 0.00 0.00 0.00 0.00 0.00 0.00 0.00 0.00 0.00 0.00 0.00 0.00 0.00 0.00 0.00 0.00 0.00 0.00 0.00 0.00 0.00 0.00
0.00 0.00 0.00 0.00 0.00 0.00 0.00 0.00 0.00 0.00 0.00 0.00 0.00 0.00 0.00 0.00 0.00 0.00 0.00 0.00 0.00 0.00 0.00 0.00 0.00 0.00 0.00 0.00 0.00 0.00 0.00 0.00 0.00 0.00 0.00 0.00 0.00 0.00 0.00 0.00 0.00 0.00 0.00 0.00
0.00 0.00 0.00 0.00 0.00 0.00 0.00 0.00 0.00 0.00 0.00 0.00 0.00 0.00 0.00 0.00 0.00 0.00 0.00 0.00 0.00 0.00 0.00 0.00 0.00 0.00 0.00 0.00 0.00 0.00 0.00 0.00 0.00 0.00 0.00 0.00 0.00 0.00 0.00 0.00 0.00 0.00 0.00 0.00
0.00 0.00 0.00 0.00 0.00 0.00 0.00 0.00 0.00 0.00 0.00 0.00 0.00 0.00 0.00 0.00 0.00 0.00 0.00 0.00 0.00 0.00 0.00 0.00 0.00 0.00 0.00 0.00 0.00 0.00 0.00 0.00 0.00 0.00 0.00 0.00 0.00 0.00 0.00 0.00 0.00 0.00 0.00 0.00
0.00 0.00 0.00 0.00 0.00 0.00 0.00 0.00 0.00 0.00 0.00 0.00 0.00 0.00 0.00 0.00 0.00 0.00 0.00 0.00 0.00 0.00 0.00 0.00 0.00 0.00 0.00 0.00 0.00 0.00 0.00 0.00 0.00 0.00 0.00 0.00 0.00 0.00 0.00 0.00 0.00 0.00 0.00 0.00
0.00 0.00 0.00 0.00 0.00 0.00 0.00 0.00 0.00 0.00 0.00 0.00 0.00 0.00 0.00 0.00 0.00 0.00 0.00 0.00 0.00 0.00 0.00 0.00 0.00 0.00 0.00 0.00 0.00 0.00 0.00 0.00 0.00 0.00 0.00 0.00 0.00 0.00 0.00 0.00 0.00 0.00 0.00 0.00
0.00 0.00 0.00 0.00 0.00 0.00 0.00 0.00 0.00 0.00 0.00 0.00 0.00 0.00 0.00 0.00 0.00 0.00 0.00 0.00 0.00 0.00 0.00 0.00 0.00 0.00 0.00 0.00 0.00 0.00 0.00 0.00 0.00 0.00 0.00 0.00 0.00 0.00 0.00 0.00 0.00 0.00 0.00 0.00
0.00 0.00 0.00 0.00 0.00 0.00 0.00 0.00 0.00 0.00 0.00 0.00 0.00 0.00 0.00 0.00 0.00 0.00 0.00 0.00 0.00 0.00 0.00 0.00 0.00 0.00 0.00 0.00 0.00 0.00 0.00 0.00 0.00 0.00 0.00 0.00 0.00 0.00 0.00 0.00 0.00 0.00 0.00 0.00
0.00 0.00 0.00 0.00 0.00 0.00 0.00 0.00 0.00 0.00 0.00 0.00 0.00 0.00 0.00 0.00 0.00 0.00 0.00 0.00 0.00 0.00 0.00 0.00 0.00 0.00 0.00 0.00 0.00 0.00 0.00 0.00 0.00 0.00 0.00 0.00 0.00 0.00 0.00 0.00 0.00 0.00 0.00 0.00
0.00 0.00 0.00 0.00 0.00 0.00 0.00 0.00 0.00 0.00 0.00 0.00 0.00 0.00 0.00 0.00 0.00 0.00 0.00 0.00 0.00 0.00 0.00 0.00 0.00 0.00 0.00 0.00 0.00 0.00 0.00 0.00 0.00 0.00 0.00 0.00 0.00 0.00 0.00 0.00 0.00 0.00 0.00 0.00
0.00 0.00 0.00 0.00 0.00 0.00 0.00 0.00 0.00 0.00 0.00 0.00 0.00 0.00 0.00 0.00 0.00 0.00 0.00 0.00 0.00 0.00 0.00 0.00 0.00 0.00 0.00 0.00 0.00 0.00 0.00 0.00 0.00 0.00 0.00 0.00 0.00 0.00 0.00 0.00 0.00 0.00 0.00 0.00
0.00 0.00 0.00 0.00 0.00 0.00 0.00 0.00 0.00 0.00 0.00 0.00 0.00 0.00 0.00 0.00 0.00 0.00 0.00 0.00 0.00 0.00 0.00 0.00 0.00 0.00 0.00 0.00 0.00 0.00 0.00 0.00 0.00 0.00 0.00 0.00 0.00 0.00 0.00 0.00 0.00 0.00 0.00 0.00
0.00 0.00 0.00 0.00 0.00 0.00 0.00 0.00 0.00 0.00 0.00 0.00 0.00 0.00 0.00 0.00 0.00 0.00 0.00 0.00 0.00 0.00 0.00 0.00 0.00 0.00 0.00 0.00 0.00 0.00 0.00 0.00 0.00 0.00 0.00 0.00 0.00 0.00 0.00 0.00 0.00 0.00 0.00 0.00
0.00 0.00 0.00 0.00 0.00 0.00 0.00 0.00 0.00 0.00 0.00 0.00 0.00 0.00 0.00 0.00 0.00 0.00 0.00 0.00 0.00 0.00 0.00 0.00 0.00 0.00 0.00 0.00 0.00 0.00 0.00 0.00 0.00 0.00 0.00 0.00 0.00 0.00 0.00 0.00 0.00 0.00 0.00 0.00
0.00 0.00 0.00 0.00 0.00 0.00 0.00 0.00 0.00 0.00 0.00 0.00 0.00 0.00 0.00 0.00 0.00 0.00 0.00 0.00 0.00 0.00 0.00 0.00 0.00 0.00 0.00 0.00 0.00 0.00 0.00 0.00 0.00 0.00 0.00 0.00 0.00 0.00 0.00 0.00 0.00 0.00 0.00 0.00
0.00 0.00 0.00 0.00 0.00 0.00 0.00 0.00 0.00 0.00 0.00 0.00 0.00 0.00 0.00 0.00 0.00 0.00 0.00 0.00 0.00 0.00 0.00 0.00 0.00 0.00 0.00 0.00 0.00 0.00 0.00 0.00 0.00 0.00 0.00 0.00 0.00 0.00 0.00 0.00 0.00 0.00 0.00 0.00
0.00 0.00 0.00 0.00 0.00 0.00 0.00 0.00 0.00 0.00 0.00 0.00 0.00 0.00 0.00 0.00 0.00 0.00 0.00 0.00 0.00 0.00 0.00 0.00 0.00 0.00 0.00 0.00 0.00 0.00 0.00 0.00 0.00 0.00 0.00 0.00 0.00 0.00 0.00 0.00 0.00 0.00 0.00 0.00
0.00 0.00 0.00 0.00 0.00 0.00 0.00 0.00 0.00 0.00 0.00 0.00 0.00 0.00 0.00 0.00 0.00 0.00 0.00 0.00 0.00 0.00 0.00 0.00 0.00 0.00 0.00 0.00 0.00 0.00 0.00 0.00 0.00 0.00 0.00 0.00 0.00 0.00 0.00 0.00 0.00 0.00 0.00 0.00
0.00 0.00 0.00 0.00 0.00 0.00 0.00 0.00 0.00 0.00 0.00 0.00 0.00 0.00 0.00 0.00 0.00 0.00 0.00 0.00 0.00 0.00 0.00 0.00 0.00 0.00 0.00 0.00 0.00 0.00 0.00 0.00 0.00 0.00 0.00 0.00 0.00 0.00 0.00 0.00 0.00 0.00 0.00 0.00
0.00 0.00 0.00 0.00 0.00 0.00 0.00 0.00 0.00 0.00 0.00 0.00 0.00 0.00 0.00 0.00 0.00 0.00 0.00 0.00 0.00 0.00 0.00 0.00 0.00 0.00 0.00 0.00 0.00 0.00 0.00 0.00 0.00 0.00 0.00 0.00 0.00 0.00 0.00 0.00 0.00 0.00 0.00 0.00
0.00 0.00 0.00 0.00 0.00 0.00 0.00 0.00 0.00 0.00 0.00 0.00 0.00 0.00 0.00 0.00 0.00 0.00 0.00 0.00 0.00 0.00 0.00 0.00 0.00 0.00 0.00 0.00 0.00 0.00 0.00 0.00 0.00 0.00 0.00 0.00 0.00 0.00 0.00 0.00 0.00 0.00 0.00 0.00
MSLP
1017.26 1017.48 1017.39 1016.53 1015.30 1015.00 1015.34 1016.21 1017.43 1019.99 1021.42 1022.77 1023.38 1023.69 1023.79 1023.87 1023.71 1023.16 1022.81 1022.33 1021.80 1021.11 1020.78 1020.20 1019.51 1019.14 1018.37 1017.36 1016.48 1016.12 1015.42 1014.85 1014.52 1014.21 1013.50 1012.78 1012.08 1011.36 1010.85 1010.00 1009.60 1008.95 1008.24 1007.64
1017.15 1017.39 1017.61 1017.64 1017.53 1017.23 1017.52 1018.19 1019.57 1020.84 1022.34 1023.77 1024.45 1024.69 1024.54 1024.49 1024.36 1024.30 1024.20 1023.98 1023.75 1023.24 1022.83 1022.09 1021.12 1020.21 1019.62 1018.65 1018.14 1017.48 1016.71 1016.41 1015.96 1015.40 1014.76 1014.11 1013.41 1012.53 1012.19 1011.42 1010.97 1010.27 1009.86 1009.51
1016.88 1017.25 1017.65 1018.51 1019.49 1019.12 1019.09 1019.66 1020.24 1021.43 1023.11 1024.25 1024.87 1025.22 1025.44 1025.49 1025.54 1025.37 1025.29 1025.43 1025.25 1024.97 1024.49 1023.78 1022.73 1021.68 1020.71 1020.23 1019.63 1018.30 1017.88 1017.57 1017.10 1016.49 1015.85 1015.34 1014.89 1014.22 1013.39 1013.02 1012.61 1011.99 1011.73 1010.64
1016.66 1017.08 1018.21 1019.84 1020.38 1020.49 1020.56 1021.24 1021.88 1022.60 1023.57 1024.47 1025.17 1025.94 1026.47 1026.80 1026.78 1026.69 1026.48 1026.19 1025.89 1025.65 1025.09 1024.46 1023.67 1022.46 1021.60 1020.64 1020.25 1020.00 1019.49 1019.05 1018.53 1017.85 1017.23 1016.61 1016.10 1015.56 1014.99 1014.40 1013.92 1013.48 1012.99 1012.54
1016.76 1017.58 1019.09 1019.95 1020.76 1020.99 1020.93 1022.07 1022.65 1022.99 1023.80 1024.45 1025.19 1025.43 1026.82 1027.54 1027.70 1027.73 1027.32 1026.99 1026.75 1026.49 1026.11 1025.38 1024.40 1023.47 1022.55 1021.95 1021.76 1021.52 1020.87 1020.38 1019.87 1019.21 1018.55 1017.88 1017.33 1016.96 1016.44 1015.94 1015.55 1015.06 1014.51 1013.69
1017.13 1017.87 1019.26 1020.59 1021.17 1021.25 1021.21 1022.27 1023.22 1023.61 1023.91 1024.34 1024.69 1025.61 1027.59 1028.38 1028.51 1028.48 1028.04 1027.59 1027.31 1026.90 1026.72 1026.02 1025.33 1024.51 1023.83 1023.29 1022.72 1022.06 1021.96 1021.65 1021.14 1020.40 1019.85 1019.32 1018.76 1018.34 1017.98 1017.22 1016.76 1016.19 1015.75 1015.24
1017.98 1018.82 1020.30 1021.33 1021.50 1021.43 1021.95 1023.56 1023.74 1024.25 1024.58 1024.71 1025.56 1027.14 1028.29 1028.90 1029.02 1028.95 1028.56 1028.12 1027.92 1027.71 1027.47 1026.88 1026.12 1025.53 1024.83 1024.36 1024.12 1023.81 1023.17 1022.61 1021.87 1021.35 1020.87 1020.46 1019.75 1019.23 1018.98 1018.34 1017.61 1017.08 1016.68 1016.27
1019.33 1020.12 1021.41 1021.97 1021.82 1022.15 1023.12 1023.56 1024.17 1024.87 1025.49 1025.96 1026.81 1027.80 1028.61 1029.19 1029.41 1029.29 1029.16 1028.96 1028.77 1028.53 1028.04 1027.78 1027.24 1026.73 1026.13 1025.63 1025.24 1024.64 1024.07 1023.30 1022.77 1022.71 1022.27 1021.85 1021.30 1020.66 1020.16 1019.58 1018.89 1018.17 1017.82 1017.28
1020.61 1021.40 1022.34 1022.91 1022.98 1023.33 1023.63 1024.27 1024.99 1025.43 1026.05 1026.68 1027.53 1028.39 1029.09 1029.55 1029.81 1029.83 1029.69 1029.86 1029.73 1029.01 1028.83 1028.38 1028.14 1027.68 1027.21 1026.96 1025.87 1025.20 1024.54 1024.21 1024.07 1023.54 1023.12 1022.94 1022.29 1021.69 1021.05 1020.62 1020.24 1019.69 1019.16 1018.74
1021.23 1022.31 1022.89 1023.52 1024.02 1024.26 1024.55 1025.02 1025.64 1026.23 1026.84 1027.40 1028.06 1028.96 1029.60 1030.03 1030.33 1030.55 1030.63 1030.43 1030.05 1029.71 1029.50 1029.65 1029.33 1028.87 1028.48 1027.69 1026.99 1025.86 1025.47 1025.32 1024.62 1024.33 1024.05 1023.68 1023.31 1022.90 1022.52 1022.00 1021.49 1021.21 1020.60 1020.19
1021.65 1022.43 1023.33 1024.01 1024.43 1024.90 1025.33 1025.79 1026.43 1027.13 1027.62 1028.20 1028.82 1029.60 1030.12 1030.56 1030.91 1031.29 1031.30 1031.14 1031.04 1030.75 1030.53 1030.44 1029.93 1029.51 1029.23 1028.61 1027.62 1026.60 1026.71 1026.12 1025.75 1025.46 1025.00 1024.49 1024.39 1024.27 1023.72 1023.54 1023.07 1022.54 1022.16 1021.72
1021.13 1021.71 1022.61 1023.61 1024.48 1024.98 1025.50 1026.23 1026.83 1027.36 1028.11 1028.75 1029.16 1029.87 1030.53 1031.02 1031.43 1031.58 1031.59 1031.71 1031.57 1031.35 1031.18 1031.00 1030.71 1030.27 1029.91 1029.28 1028.41 1027.92 1027.42 1027.08 1026.87 1026.38 1026.12 1025.78 1025.35 1024.81 1024.82 1024.44 1024.02 1023.69 1023.33 1022.76
1021.42 1021.99 1022.79 1023.79 1024.77 1025.29 1025.81 1026.57 1027.24 1027.72 1028.27 1028.90 1029.58 1030.02 1030.57 1031.07 1031.53 1031.87 1031.97 1032.03 1031.89 1031.84 1031.70 1031.47 1031.15 1030.86 1030.74 1030.27 1029.53 1028.95 1028.49 1028.15 1027.69 1027.31 1026.93 1026.61 1026.15 1025.74 1025.22 1024.78 1024.61 1024.41 1024.06 1023.79
1021.92 1022.56 1023.87 1024.45 1025.08 1025.85 1026.37 1027.09 1027.78 1028.33 1028.86 1029.40 1029.92 1030.55 1031.13 1031.59 1032.05 1032.30 1032.49 1032.48 1032.57 1032.65 1032.57 1032.46 1032.30 1032.13 1031.86 1031.17 1030.45 1029.95 1029.41 1029.13 1028.65 1028.33 1028.00 1027.58 1027.18 1026.75 1026.38 1025.82 1025.24 1024.99 1024.88 1024.74
1022.46 1022.72 1023.09 1024.41 1025.54 1026.39 1027.06 1027.65 1028.30 1028.95 1029.57 1030.08 1030.63 1031.10 1031.57 1032.05 1032.58 1033.03 1033.24 1033.17 1033.15 1033.26 1033.38 1033.29 1033.09 1032.93 1032.56 1032.00 1031.26 1030.69 1030.06 1029.62 1029.34 1028.95 1028.63 1028.41 1027.91 1027.51 1027.16 1026.70 1026.34 1026.05 1025.75 1025.45
1022.82 1023.34 1024.04 1024.69 1025.76 1026.71 1027.37 1028.03 1028.67 1029.41 1030.04 1030.72 1031.30 1031.82 1032.40 1032.92 1033.36 1033.86 1034.05 1033.98 1033.86 1034.09 1034.23 1034.21 1034.05 1033.91 1033.42 1032.76 1031.99 1031.25 1030.74 1030.44 1029.97 1029.47 1029.08 1028.69 1028.43 1028.06 1027.73 1027.42 1027.14 1026.94 1026.85 1026.74
1022.79 1023.87 1024.50 1025.25 1025.94 1026.68 1027.30 1028.12 1028.91 1029.77 1030.61 1031.33 1031.92 1032.62 1033.18 1033.48 1034.08 1034.48 1034.56 1034.59 1034.73 1034.81 1034.87 1034.86 1034.77 1034.42 1033.87 1033.28 1032.49 1031.79 1031.19 1030.69 1030.49 1029.93 1029.66 1029.34 1028.94 1028.64 1028.39 1028.13 1027.90 1027.74 1027.84 1027.95
1022.33 1023.13 1024.04 1024.71 1025.67 1026.72 1027.77 1028.62 1029.46 1030.32 1031.14 1031.86 1032.74 1033.34 1033.82 1034.25 1034.61 1034.87 1035.14 1035.24 1035.13 1035.11 1035.15 1035.24 1035.07 1034.58 1034.12 1033.54 1032.95 1032.26 1031.73 1031.27 1030.82 1030.51 1030.16 1029.91 1029.63 1029.26 1029.02 1028.72 1028.52 1028.36 1028.25 1028.30
1023.05 1023.71 1024.51 1025.27 1026.11 1027.08 1028.15 1029.14 1030.10 1030.96 1031.88 1032.60 1033.43 1034.08 1034.60 1034.95 1035.13 1035.30 1035.44 1035.48 1035.37 1035.18 1035.24 1035.21 1034.69 1034.45 1034.02 1033.58 1033.00 1032.49 1032.19 1031.82 1031.34 1030.99 1030.70 1030.43 1030.09 1029.89 1029.57 1029.22 1029.01 1029.00 1028.92 1028.72
1023.93 1024.59 1025.33 1026.15 1026.89 1027.80 1028.94 1030.00 1030.89 1031.65 1032.44 1033.39 1034.33 1034.91 1035.05 1035.23 1035.33 1035.40 1035.44 1035.21 1035.05 1035.01 1035.16 1034.92 1034.61 1034.15 1033.91 1033.68 1033.55 1032.70 1032.50 1032.17 1031.83 1031.52 1031.28 1030.93 1030.62 1030.30 1030.12 1029.92 1029.72 1029.45 1029.37 1029.21
1024.69 1025.50 1026.30 1027.11 1028.11 1029.00 1029.70 1030.58 1031.31 1032.37 1033.45 1034.12 1034.49 1034.68 1034.82 1035.00 1035.14 1035.22 1035.22 1034.67 1034.60 1034.83 1034.63 1034.59 1034.23 1033.83 1033.56 1033.66 1033.13 1032.90 1032.73 1032.48 1032.22 1031.96 1031.71 1031.42 1031.09 1030.77 1030.45 1030.26 1030.04 1029.88 1029.67 1029.47
1025.58 1026.39 1027.24 1028.04 1028.88 1029.91 1030.71 1031.16 1031.86 1032.88 1033.75 1034.28 1034.51 1034.62 1034.82 1034.72 1034.75 1034.77 1034.69 1034.34 1034.12 1034.59 1033.93 1033.66 1033.53 1034.02 1033.71 1034.02 1033.11 1032.95 1032.75 1032.56 1032.35 1032.14 1031.85 1031.66 1031.39 1031.09 1030.80 1030.57 1030.33 1030.11 1029.95 1029.80
1026.27 1027.03 1027.87 1028.64 1029.30 1030.13 1031.17 1031.67 1032.22 1032.77 1033.41 1033.77 1033.96 1034.15 1034.17 1033.87 1033.78 1033.68 1033.50 1033.61 1033.75 1033.70 1033.61 1033.12 1033.51 1033.83 1033.91 1033.35 1032.98 1032.82 1032.65 1032.50 1032.34 1032.20 1032.03 1031.85 1031.59 1031.31 1031.03 1030.73 1030.46 1030.27 1030.08 1029.91
1026.84 1027.61 1028.35 1029.21 1029.84 1030.53 1031.21 1031.78 1032.25 1032.57 1032.79 1033.05 1033.23 1033.32 1033.36 1033.29 1033.02 1032.95 1032.88 1033.08 1033.10 1033.00 1032.92 1032.70 1032.93 1033.32 1033.77 1032.77 1032.61 1032.46 1032.32 1032.18 1032.10 1031.96 1031.77 1031.69 1031.42 1031.19 1030.87 1030.63 1030.41 1030.18 1030.06 1029.83
1027.09 1027.88 1028.68 1029.26 1029.67 1030.14 1030.64 1031.34 1031.92 1032.21 1032.33 1032.31 1032.16 1032.23 1032.44 1032.42 1032.43 1031.96 1032.21 1032.33 1032.35 1032.35 1032.21 1032.40 1032.89 1033.00 1032.50 1032.23 1032.10 1031.93 1031.79 1031.73 1031.78 1031.71 1031.36 1031.13 1030.90 1030.69 1030.49 1030.31 1030.16 1030.11 1029.95 1029.66
1027.13 1027.62 1028.17 1028.65 1028.92 1029.49 1030.03 1030.63 1030.92 1031.22 1031.45 1031.42 1031.37 1031.44 1031.55 1031.70 1031.69 1031.73 1031.73 1031.77 1031.86 1031.81 1031.72 1031.54 1031.84 1031.97 1031.87 1031.70 1031.66 1031.39 1031.23 1031.05 1030.97 1030.95 1030.81 1030.46 1030.23 1030.11 1029.90 1029.77 1029.65 1029.43 1029.29 1029.23
1027.19 1027.63 1028.19 1028.71 1028.98 1029.31 1029.68 1029.98 1030.30 1030.49 1030.74 1030.78 1030.77 1030.95 1031.14 1031.28 1031.29 1031.30 1031.30 1031.32 1031.35 1031.38 1031.37 1031.36 1031.48 1031.54 1031.33 1031.20 1031.00 1030.70 1030.54 1030.35 1030.35 1030.15 1030.02 1029.84 1029.71 1029.46 1029.30 1029.18 1029.09 1028.91 1028.83 1028.81
Thickness
5451 5441 5438 5440 5460 5470 5465 5459 5459 5421 5409 5397 5394 5394 5393 5391 5390 5395 5397 5399 5404 5410 5412 5419 5427 5436 5446 5460 5471 5478 5486 5492 5496 5500 5507 5515 5523 5531 5538 5546 5551 5558 5566 5573
5452 5449 5442 5434 5437 5446 5451 5440 5424 5416 5403 5392 5387 5386 5389 5388 5388 5387 5388 5389 5389 5391 5395 5403 5414 5425 5434 5445 5452 5460 5468 5472 5475 5481 5488 5495 5502 5511 5515 5523 5529 5536 5541 5545
5467 5457 5455 5444 5423 5430 5435 5431 5436 5428 5405 5391 5386 5384 5382 5383 5381 5382 5381 5378 5378 5379 5383 5389 5399 5412 5424 5428 5436 5449 5453 5456 5460 5465 5470 5475 5479 5486 5494 5498 5502 5510 5514 5525
5471 5463 5456 5425 5418 5418 5419 5416 5413 5407 5399 5390 5382 5376 5373 5371 5372 5372 5374 5375 5377 5377 5382 5387 5394 5406 5415 5425 5428 5430 5434 5437 5441 5447 5451 5456 5460 5464 5469 5475 5481 5486 5491 5496
5465 5457 5440 5430 5416 5417 5424 5409 5404 5406 5397 5394 5385 5390 5373 5367 5365 5364 5368 5370 5372 5373 5375 5381 5389 5399 5407 5412 5413 5413 5418 5422 5425 5430 5434 5439 5442 5444 5448 5452 5455 5460 5466 5474
5462 5464 5456 5417 5410 5414 5420 5418 5395 5396 5397 5397 5402 5406 5373 5358 5357 5357 5363 5367 5369 5371 5371 5376 5382 5389 5395 5397 5402 5407 5407 5409 5412 5416 5419 5421 5424 5426 5428 5433 5437 5441 5445 5451
5448 5444 5423 5403 5404 5413 5428 5412 5391 5388 5387 5394 5386 5374 5359 5353 5352 5353 5358 5362 5363 5363 5363 5368 5374 5377 5382 5385 5384 5387 5393 5396 5400 5403 5406 5408 5412 5415 5415 5419 5424 5427 5430 5433
5430 5432 5431 5396 5406 5419 5398 5392 5388 5383 5378 5374 5368 5361 5355 5349 5349 5352 5351 5353 5353 5354 5357 5359 5363 5366 5369 5371 5373 5377 5380 5385 5388 5385 5386 5387 5391 5394 5396 5400 5405 5410 5411 5414
5411 5406 5388 5384 5387 5388 5389 5386 5380 5378 5374 5370 5363 5357 5352 5349 5347 5345 5346 5343 5344 5349 5349 5351 5351 5353 5355 5354 5362 5366 5370 5371 5369 5372 5374 5371 5374 5377 5381 5383 5385 5389 5392 5394
5398 5385 5382 5378 5376 5376 5377 5375 5372 5369 5365 5363 5358 5350 5345 5342 5341 5338 5337 5338 5342 5343 5341 5336 5336 5338 5339 5343 5346 5353 5354 5351 5355 5355 5354 5355 5357 5358 5358 5361 5364 5365 5369 5371
5388 5383 5376 5371 5371 5369 5366 5365 5360 5357 5355 5352 5348 5341 5338 5334 5331 5327 5326 5326 5325 5326 5325 5324 5326 5327 5326 5328 5333 5338 5333 5335 5335 5334 5336 5338 5336 5334 5337 5336 5338 5340 5342 5345
5397 5391 5387 5377 5370 5368 5366 5359 5356 5353 5347 5343 5342 5336 5331 5327 5323 5321 5319 5316 5315 5315 5314 5313 5313 5314 5314 5315 5319 5319 5320 5318 5316 5317 5315 5314 5314 5317 5314 5315 5316 5316 5317 5320
5386 5385 5379 5372 5365 5363 5360 5355 5351 5348 5344 5339 5333 5331 5327 5323 5318 5313 5311 5308 5307 5305 5304 5303 5303 5303 5300 5300 5303 5303 5303 5301 5301 5300 5298 5296 5296 5295 5294 5295 5295 5294 5294 5294
5372 5371 5363 5363 5360 5355 5353 5348 5342 5340 5337 5333 5329 5325 5320 5315 5309 5305 5301 5300 5296 5293 5292 5290 5289 5286 5284 5285 5286 5285 5285 5282 5281 5279 5275 5273 5270 5268 5266 5266 5266 5265 5265 5266
5367 5368 5368 5357 5350 5345 5342 5339 5335 5331 5327 5324 5320 5316 5312 5307 5301 5295 5292 5291 5289 5285 5281 5278 5277 5274 5272 5271 5271 5270 5269 5266 5261 5259 5255 5250 5247 5244 5240 5238 5235 5232 5231 5231
5356 5353 5351 5349 5342 5337 5335 5333 5330 5325 5321 5316 5311 5306 5301 5296 5291 5284 5281 5279 5278 5273 5268 5261 5261 5257 5256 5255 5254 5253 5251 5245 5242 5238 5234 5229 5223 5218 5213 5208 5204 5200 5195 5191
5351 5344 5343 5340 5337 5334 5333 5329 5325 5319 5313 5307 5302 5297 5292 5288 5281 5276 5272 5269 5264 5260 5256 5252 5248 5246 5244 5241 5240 5237 5233 5228 5220 5217 5209 5202 5196 5189 5182 5176 5171 5166 5159 5154
5356 5353 5348 5346 5340 5333 5326 5321 5316 5311 5306 5300 5293 5286 5281 5277 5275 5268 5261 5257 5255 5251 5246 5240 5236 5234 5230 5226 5222 5218 5212 5206 5199 5191 5183 5173 5165 5159 5152 5146 5140 5135 5130 5126
5345 5343 5341 5339 5335 5330 5322 5315 5310 5303 5295 5288 5282 5277 5271 5265 5263 5258 5250 5246 5243 5242 5236 5228 5225 5220 5215 5209 5203 5196 5188 5181 5174 5165 5155 5145 5137 5128 5122 5117 5113 5108 5104 5103
5335 5334 5332 5329 5326 5322 5314 5306 5300 5294 5288 5280 5269 5265 5264 5257 5251 5246 5241 5244 5239 5233 5224 5218 5212 5206 5198 5191 5182 5175 5166 5157 5148 5138 5127 5117 5109 5101 5095 5091 5088 5086 5084 5082
5328 5324 5321 5318 5311 5306 5303 5297 5293 5286 5274 5268 5267 5264 5260 5254 5245 5239 5238 5240 5231 5220 5213 5205 5198 5190 5181 5171 5163 5153 5143 5133 5122 5111 5100 5091 5084 5079 5075 5071 5069 5067 5067 5067
5319 5316 5310 5305 5302 5294 5291 5289 5285 5275 5268 5262 5255 5253 5249 5249 5239 5233 5228 5227 5220 5209 5201 5193 5184 5173 5163 5152 5143 5133 5123 5111 5099 5088 5079 5071 5065 5061 5058 5056 5054 5053 5052 5052
5314 5311 5304 5300 5298 5294 5283 5281 5276 5272 5265 5260 5256 5251 5248 5248 5241 5235 5230 5218 5208 5200 5190 5181 5170 5158 5147 5137 5126 5115 5103 5090 5080 5070 5062 5055 5050 5046 5044 5043 5042 5040 5040 5040
5308 5305 5300 5294 5290 5287 5284 5276 5271 5267 5262 5258 5253 5247 5242 5238 5232 5224 5217 5208 5198 5188 5178 5168 5156 5144 5131 5121 5110 5098 5086 5075 5066 5058 5051 5043 5040 5036 5035 5033 5031 5031 5029 5029
5306 5300 5294 5291 5290 5288 5282 5274 5267 5262 5259 5256 5252 5245 5236 5230 5223 5219 5209 5199 5187 5176 5166 5155 5142 5129 5118 5107 5095 5084 5073 5064 5057 5050 5044 5039 5034 5030 5027 5025 5023 5022 5021 5019
5302 5301 5297 5292 5291 5285 5280 5273 5269 5263 5257 5253 5246 5239 5231 5222 5215 5205 5196 5186 5175 5164 5153 5142 5129 5117 5105 5093 5081 5071 5063 5055 5049 5044 5038 5033 5029 5025 5022 5019 5016 5015 5013 5012
5298 5293 5289 5285 5282 5279 5274 5270 5264 5259 5250 5245 5239 5230 5221 5212 5203 5194 5184 5174 5163 5151 5139 5128 5115 5103 5091 5079 5069 5061 5054 5048 5043 5038 5032 5028 5023 5020 5017 5014 5011 5009 5006 5004